(210537) = 1999 JB123 = 2000 VY

Discovered at Socorro on 1999-05-13 by LINEAR.

Orbit

Orbit type: Main Belt

Note: WebGL enabled browser required.

epoch2022-01-21.0
epoch JD2459600.5
perihelion date2020-01-04.42886
perihelion JD2458852.92886
argument of perihelion (°)200.65922
ascending node (°)54.80571
inclination (°)5.66074
eccentricity0.1488901
perihelion distance (AU)1.9321768
Tisserand w.r.t. Jupiter3.6
ΔV w.r.t. Earth (km/sec)8.8
semimajor axis (AU)2.2701847
mean anomaly (°)215.40936
mean daily motion (°/day)0.28814560
aphelion distance (AU)2.608
period (years)3.42
P-vector [x]-0.25237851
P-vector [y]-0.87336475
P-vector [z]-0.41658024
Q-vector [x]0.96426530
Q-vector [y]-0.19113702
Q-vector [z]-0.18346407
absolute magnitude17.22
phase slope0.15
uncertainty0
referenceMPO 695462
observations used329
oppositions13
arc length (days)8295
first opposition used1999
last opposition used2022
residual rms (arc-secs)0.84
perturbers coarse indicatorM-v
perturbers precise indicator003Ek
first observation date used1999-05-13.0
last observation date used2022-01-27.0
computer namePan
Minimum Orbit Intersection Distances (in AU)
for orbit epoch: 2459200.5, reference: E2021-B55
Mercury1.46456
Venus1.20578
Earth0.91604
Mars0.40299
Jupiter2.42687
Saturn6.4932
Uranus16.0709
Neptune27.3783

Observations

337 total observations over interval: 1999 05 13.39116 – 2022 01 27.147406
These data are available for download (format description).

Date (UT) J2000 RA J2000 Dec Magn Location Ref
1999 05 13.39116 16 13 56.49 -21 57 43.3 19.4   704 – Lincoln Laboratory ETS, New Mexico MPS 5210
1999 05 13.42133 16 13 54.55 -21 57 47.6 19.4   704 – Lincoln Laboratory ETS, New Mexico MPS 5210
1999 05 13.43641 16 13 53.26 -21 57 49.6 19.8   704 – Lincoln Laboratory ETS, New Mexico MPS 5210
1999 05 18.29348 16 09 05.53 -22 09 40.0 19.4   704 – Lincoln Laboratory ETS, New Mexico MPS 5210
1999 05 18.32135 16 09 03.72 -22 09 43.6 19.4   704 – Lincoln Laboratory ETS, New Mexico MPS 5210
1999 05 18.33523 16 09 02.74 -22 09 45.7 19.4   704 – Lincoln Laboratory ETS, New Mexico MPS 5210
1999 05 18.34913 16 09 01.73 -22 09 47.9 19.4   704 – Lincoln Laboratory ETS, New Mexico MPS 5210
1999 06 15.17761 15 42 00.61 -22 57 53.7 19.1   704 – Lincoln Laboratory ETS, New Mexico MPS 5210
1999 06 15.18977 15 42 00.05 -22 57 54.8 19.7   704 – Lincoln Laboratory ETS, New Mexico MPS 5210
1999 06 15.21411 15 41 58.90 -22 57 58.0 19.6   704 – Lincoln Laboratory ETS, New Mexico MPS 5210
1999 06 15.22624 15 41 58.33 -22 57 57.9 19.3   704 – Lincoln Laboratory ETS, New Mexico MPS 5210
2000 11 01.39044 03 19 06.02 +16 59 14.6 22.2 V 691 – Steward Observatory, Kitt Peak-Spacewatch MPS 21681
2000 11 01.41218 03 19 04.56 +16 59 11.9 21.6 V 691 – Steward Observatory, Kitt Peak-Spacewatch MPS 21681
2000 11 01.43431 03 19 03.11 +16 59 08.9 21.3 V 691 – Steward Observatory, Kitt Peak-Spacewatch MPS 21681
2000 11 02.41338 03 17 59.46 +16 57 08.9 20.9 V 691 – Steward Observatory, Kitt Peak-Spacewatch MPS 21681
2000 11 02.41762 03 17 59.18 +16 57 08.5 20.9 V 691 – Steward Observatory, Kitt Peak-Spacewatch MPS 21681
2000 11 02.42152 03 17 58.93 +16 57 07.5 21.1 V 691 – Steward Observatory, Kitt Peak-Spacewatch MPS 21681
2000 11 03.35801 03 16 57.63 +16 55 11.3 21.4 V 691 – Steward Observatory, Kitt Peak-Spacewatch MPS 21681
2000 11 03.36244 03 16 57.32 +16 55 10.9 21.4 V 691 – Steward Observatory, Kitt Peak-Spacewatch MPS 21681
2000 11 03.36635 03 16 57.05 +16 55 10.3 21.2 V 691 – Steward Observatory, Kitt Peak-Spacewatch MPS 21681
2002 03 22.35886 10 42 28.00 +18 00 16.3 20.7   644 – Palomar Mountain/NEAT MPS 51525
2002 03 22.37980 10 42 26.85 +18 00 18.6 20.1   644 – Palomar Mountain/NEAT MPS 51525
2002 03 22.40115 10 42 25.70 +18 00 20.8 20.9   644 – Palomar Mountain/NEAT MPS 51525
2002 04 02.25780 10 34 24.74 +18 06 49.6 20.6   644 – Palomar Mountain/NEAT MPS 54368
2002 04 02.27870 10 34 23.94 +18 06 48.6 20.7   644 – Palomar Mountain/NEAT MPS 54368
2002 04 02.29959 10 34 23.15 +18 06 47.4 20.3   644 – Palomar Mountain/NEAT MPS 54368
2007 09 15.44190 04 41 57.87 +21 32 58.3 21.9 V G96 – Mt. Lemmon Survey MPS 215945
2007 09 15.44759 04 41 58.05 +21 32 59.1 21.1 V G96 – Mt. Lemmon Survey MPS 215945
2007 09 15.45330 04 41 58.27 +21 32 59.9 20.8 V G96 – Mt. Lemmon Survey MPS 215945
2007 09 15.45895 04 41 58.45 +21 32 59.8 20.8 V G96 – Mt. Lemmon Survey MPS 215945
2007 10 30.41430 04 41 17.65 +22 49 45.5 20.8 V 691 – Steward Observatory, Kitt Peak-Spacewatch MPS 223298
2007 10 30.43194 04 41 16.88 +22 49 46.4 20.9 V 691 – Steward Observatory, Kitt Peak-Spacewatch MPS 223298
2007 10 30.44958 04 41 16.13 +22 49 47.8 20.6 V 691 – Steward Observatory, Kitt Peak-Spacewatch MPS 223298
2007 11 03.36160 04 38 17.40 +22 52 33.1 20.7 V 691 – Steward Observatory, Kitt Peak-Spacewatch MPS 224557
2007 11 03.37927 04 38 16.48 +22 52 33.6 20.8 V 691 – Steward Observatory, Kitt Peak-Spacewatch MPS 224557
2007 11 03.39696 04 38 15.58 +22 52 34.4 20.7 V 691 – Steward Observatory, Kitt Peak-Spacewatch MPS 224557
2009 03 17.41229 12 45 52.52 +04 01 50.4 20.0 V 703 – Catalina Sky Survey MPS 281188
2009 03 17.41709 12 45 52.20 +04 01 50.9 20.3 V 703 – Catalina Sky Survey MPS 281188
2009 03 17.42179 12 45 51.91 +04 01 51.6 19.1 V 703 – Catalina Sky Survey MPS 281188
2009 03 17.42652 12 45 51.62 +04 01 53.1 19.5 V 703 – Catalina Sky Survey MPS 281188
2009 03 18.07571 12 45 17.10 +04 05 04.0 18.7 V J75 – OAM Observatory, La Sagra MPS 281188
2009 03 18.08198 12 45 16.73 +04 05 04.9 18.9 V J75 – OAM Observatory, La Sagra MPS 281188
2009 03 18.08846 12 45 16.37 +04 05 07.7 19.0 V J75 – OAM Observatory, La Sagra MPS 281188
2009 03 18.09471 12 45 16.03 +04 05 09.2 19.6 V J75 – OAM Observatory, La Sagra MPS 281188
2009 03 18.10132 12 45 15.64 +04 05 11.0 19.7 V J75 – OAM Observatory, La Sagra MPS 281188
2009 03 18.10751 12 45 15.32 +04 05 12.2 18.7 V J75 – OAM Observatory, La Sagra MPS 281188
2009 03 22.00444 12 41 37.18 +04 24 06.7 18.3 R 185 – Observatoire Astronomique Jurassien-Vicques MPS 281188
2009 03 22.01146 12 41 36.78 +04 24 08.7 18.4 R 185 – Observatoire Astronomique Jurassien-Vicques MPS 281188
2009 03 22.01860 12 41 36.31 +04 24 10.8 18.4 R 185 – Observatoire Astronomique Jurassien-Vicques MPS 281188
2009 03 22.02542 12 41 35.91 +04 24 12.8 18.3 R 185 – Observatoire Astronomique Jurassien-Vicques MPS 281188
2009 03 22.03219 12 41 35.50 +04 24 14.1 18.4 R 185 – Observatoire Astronomique Jurassien-Vicques MPS 281188
2009 03 22.03900 12 41 35.14 +04 24 15.4 18.5 R 185 – Observatoire Astronomique Jurassien-Vicques MPS 281188
2009 03 27.34429 12 36 17.53 +04 48 50.0 19.3 V 703 – Catalina Sky Survey MPS 282454
2009 03 27.35009 12 36 17.20 +04 48 51.0 19.9 V 703 – Catalina Sky Survey MPS 282454
2009 03 27.35596 12 36 16.84 +04 48 53.1 19.7 V 703 – Catalina Sky Survey MPS 282454
2009 03 27.36176 12 36 16.41 +04 48 53.4 19.5 V 703 – Catalina Sky Survey MPS 282454
2009 04 03.24046 12 29 11.04 +05 16 22.6 19.6 V 703 – Catalina Sky Survey MPS 283567
2009 04 03.24771 12 29 10.64 +05 16 23.4 19.0 V 703 – Catalina Sky Survey MPS 283567
2009 04 03.25502 12 29 10.17 +05 16 25.9 19.7 V 703 – Catalina Sky Survey MPS 283567
2009 04 03.26228 12 29 09.67 +05 16 27.3 19.6 V 703 – Catalina Sky Survey MPS 283567
2009 04 21.24241 12 12 47.88 +05 48 48.9 19.9   704 – Lincoln Laboratory ETS, New Mexico MPS 285599
2009 04 21.25319 12 12 47.39 +05 48 47.9 20.1   704 – Lincoln Laboratory ETS, New Mexico MPS 285599
2009 04 21.26463 12 12 46.79 +05 48 47.5 19.8   704 – Lincoln Laboratory ETS, New Mexico MPS 285599
2009 04 21.28868 12 12 45.73 +05 48 48.0 20.1   704 – Lincoln Laboratory ETS, New Mexico MPS 285599
2010 09 11.35242 01 48 06.54 +04 32 35.5 20.4 V 691 – Steward Observatory, Kitt Peak-Spacewatch MPS 349276
2010 09 11.37005 01 48 05.98 +04 32 32.5 20.7 V 691 – Steward Observatory, Kitt Peak-Spacewatch MPS 349276
2010 09 11.38770 01 48 05.42 +04 32 28.9 20.3 V 691 – Steward Observatory, Kitt Peak-Spacewatch MPS 349276
2010 09 15.36278 01 45 48.84 +04 20 08.0 20.4 V 691 – Steward Observatory, Kitt Peak-Spacewatch MPS 349276
2010 09 15.38044 01 45 48.17 +04 20 03.8 20.5 V 691 – Steward Observatory, Kitt Peak-Spacewatch MPS 349276
2010 09 15.39808 01 45 47.49 +04 20 01.0 20.5 V 691 – Steward Observatory, Kitt Peak-Spacewatch MPS 349276
2010 09 19.42245 01 43 02.58 +04 05 55.9 20.6 V 691 – Steward Observatory, Kitt Peak-Spacewatch MPS 349276
2010 09 19.44008 01 43 01.73 +04 05 51.9 20.4 V 691 – Steward Observatory, Kitt Peak-Spacewatch MPS 349276
2010 09 19.45771 01 43 00.94 +04 05 48.2 20.6 V 691 – Steward Observatory, Kitt Peak-Spacewatch MPS 349276
2010 10 10.32387 01 23 33.49 +02 39 47.6 20.3 V 691 – Steward Observatory, Kitt Peak-Spacewatch MPS 353507
2010 10 10.34155 01 23 32.35 +02 39 44.0 20.1 V 691 – Steward Observatory, Kitt Peak-Spacewatch MPS 353507
2010 10 10.35920 01 23 31.19 +02 39 39.0 20.2 V 691 – Steward Observatory, Kitt Peak-Spacewatch MPS 353507
2010 10 14.33040 01 19 20.20 +02 23 47.2 20.5 V 691 – Steward Observatory, Kitt Peak-Spacewatch MPS 353507
2010 10 14.34810 01 19 19.08 +02 23 43.0 20.6 V 691 – Steward Observatory, Kitt Peak-Spacewatch MPS 353507
2010 10 14.36633 01 19 17.87 +02 23 38.8 20.7 V 691 – Steward Observatory, Kitt Peak-Spacewatch MPS 353507
2012 01 20.17273 08 48 53.74 +26 54 09.7 20.4 V 691 – Steward Observatory, Kitt Peak-Spacewatch MPS 409923
2012 01 20.19078 08 48 52.53 +26 54 16.0 20.5 V 691 – Steward Observatory, Kitt Peak-Spacewatch MPS 409923
2012 01 20.20882 08 48 51.34 +26 54 22.3 20.4 V 691 – Steward Observatory, Kitt Peak-Spacewatch MPS 409923
2012 01 25.52300 08 42 48.587 +27 24 26.97 20.3 r F51 – Pan-STARRS 1, Haleakala MPS 409923
2012 01 25.53506 08 42 47.727 +27 24 30.79 20.2 r F51 – Pan-STARRS 1, Haleakala MPS 409923
2012 01 25.54851 08 42 46.753 +27 24 34.98 20.3 i F51 – Pan-STARRS 1, Haleakala MPS 409923
2012 01 25.56108 08 42 45.848 +27 24 38.98 20.1 i F51 – Pan-STARRS 1, Haleakala MPS 409923
